Sedalia, MO

4:36 PM CST on November 19, 2019 (GMT -0600)
Sedalia Memorial

Weather History for KDMO - October, 2019

Change the Weather History Date:

Monday, October 21, 2019

  Actual Average Record
Temperature  
Mean Temperature 55 °F 57 °F  
Max Temperature 60 °F 67 °F 90 °F (1979)
Min Temperature 49 °F 47 °F 22 °F (1982)
Degree Days  
Heating Degree Days 10 9  
Month to date heating degree days 210 139  
Since 1 July heating degree days 212 184  
Cooling Degree Days 0 1  
Month to date cooling degree days 22 31  
Year to date cooling degree days 1146 1481  
Growing Degree Days 4 (Base 50)    
Moisture  
Dew Point 48 °F    
Average Humidity 70    
Maximum Humidity 93    
Minimum Humidity 47    
Precipitation  
Precipitation 0.76 in 0.12 in 3.10 in (1983)
Month to date precipitation 3.48 2.67  
Year to date precipitation 41.56 34.72  
Sea Level Pressure  
Sea Level Pressure 29.60 in    
Wind  
Wind Speed 14 mph (WSW)    
Max Wind Speed 26 mph    
Max Gust Speed 39 mph    
Visibility 8 miles    
Events Rain , Thunderstorm    
T = Trace of Precipitation, MM = Missing Value Source: NWS Daily Summary

Daily Weather History Graph

Daily Weather History Graph

Search for Another Location

Airport or City:

Astronomy

Oct. 21, 2019 Rise Set
Actual Time 7:27 AM CDT 6:26 PM CDT
Civil Twilight 7:00 AM CDT 6:53 PM CDT
Nautical Twilight 6:29 AM CDT 7:24 PM CDT
Astronomical Twilight 5:59 AM CDT 7:54 PM CDT
Moon No Moon Rise 2:44 PM CDT (10/21)
Length of Visible Light 11h 52m
Length of Day
10h 58m
Waning Gibbous, 48% of the Moon is Illuminated
Oct 21
Waning Gibbous
Oct 27
New
Nov 4
First Quarter
Nov 12
Full
Nov 19
Last Quarter

Hourly Weather History & Observations

Time (CDT) Temp. Dew Point Humidity Pressure Visibility Wind Dir Wind Speed Gust Speed Precip Events Conditions
12:53 AM 59.0 °F 57.0 °F 93% 29.60 in 5.0 mi SW 4.6 mph - 0.06 in Rain , Thunderstorm Thunderstorms and Rain
1:01 AM 59.0 °F 57.0 °F 93% 29.59 in 2.0 mi SSE 4.6 mph - 0.03 in Rain , Thunderstorm Thunderstorms and Rain
1:08 AM 57.9 °F 57.0 °F 97% 29.59 in 4.0 mi ESE 4.6 mph - 0.07 in Rain , Thunderstorm Rain
1:20 AM 59.0 °F 57.0 °F 93% 29.63 in 2.5 mi WSW 18.4 mph 27.6 mph 0.23 in Rain , Thunderstorm Thunderstorms and Rain
1:23 AM 60.1 °F 57.9 °F 93% 29.63 in 1.8 mi SW 15.0 mph 27.6 mph 0.35 in Rain , Thunderstorm Heavy Thunderstorms and Rain
1:32 AM 60.1 °F 57.0 °F 90% 29.62 in 2.0 mi West 9.2 mph - 0.43 in Rain , Thunderstorm Thunderstorms and Rain
1:40 AM 59.0 °F 57.0 °F 93% 29.62 in 4.0 mi West 10.4 mph 18.4 mph 0.47 in Rain , Thunderstorm Heavy Thunderstorms and Rain
1:47 AM 59.0 °F 57.2 °F 94% 29.62 in 4.0 mi West 10.4 mph 21.9 mph 0.51 in Rain , Thunderstorm Rain
1:53 AM 59.0 °F 57.0 °F 93% 29.61 in 4.0 mi West 6.9 mph - 0.54 in Rain , Thunderstorm Rain
2:41 AM 57.9 °F 57.0 °F 97% 29.50 in 6.0 mi ENE 12.7 mph - 0.20 in Rain , Thunderstorm Thunderstorms and Rain
2:53 AM 57.0 °F 55.9 °F 96% 29.42 in 5.0 mi East 16.1 mph 25.3 mph 0.24 in Rain , Thunderstorm Thunderstorms and Rain
3:04 AM 57.0 °F 55.9 °F 96% 29.44 in 10.0 mi East 9.2 mph 29.9 mph 0.00 in Rain , Thunderstorm Light Thunderstorms and Rain
3:12 AM 57.0 °F 55.9 °F 96% 29.45 in 10.0 mi East 9.2 mph - 0.00 in   Mostly Cloudy
3:53 AM 57.9 °F 55.9 °F 93% 29.51 in 10.0 mi West 10.4 mph 21.9 mph 0.00 in   Mostly Cloudy
4:31 AM 57.9 °F 55.9 °F 93% 29.50 in 10.0 mi SW 6.9 mph - N/A   Overcast
4:53 AM 57.0 °F 55.0 °F 93% 29.48 in 10.0 mi SSW 6.9 mph - N/A   Mostly Cloudy
5:00 AM 57.0 °F 55.0 °F 93% 29.49 in 10.0 mi South 6.9 mph - N/A   Mostly Cloudy
5:53 AM 55.9 °F 54.0 °F 93% 29.49 in 10.0 mi SW 15.0 mph - N/A   Partly Cloudy
6:02 AM 55.9 °F 54.0 °F 93% 29.50 in 10.0 mi WSW 19.6 mph 28.8 mph N/A   Mostly Cloudy
6:10 AM 55.0 °F 52.0 °F 89% 29.50 in 10.0 mi WSW 11.5 mph 28.8 mph N/A   Scattered Clouds
6:53 AM 52.0 °F 48.0 °F 86% 29.52 in 10.0 mi West 15.0 mph 24.2 mph N/A   Clear
7:53 AM 48.9 °F 42.1 °F 77% 29.55 in 10.0 mi WSW 8.1 mph 24.2 mph N/A   Clear
8:53 AM 50.0 °F 43.0 °F 77% 29.57 in 10.0 mi WSW 13.8 mph 25.3 mph N/A   Clear
9:53 AM 51.1 °F 41.0 °F 68% 29.58 in 10.0 mi WSW 17.3 mph 32.2 mph N/A   Clear
10:53 AM 52.0 °F 39.9 °F 63% 29.59 in 10.0 mi WSW 20.7 mph 34.5 mph N/A   Clear
11:53 AM 54.0 °F 39.9 °F 59% 29.61 in 10.0 mi WSW 19.6 mph 32.2 mph N/A   Clear
12:53 PM 55.9 °F 39.9 °F 55% 29.62 in 10.0 mi WSW 13.8 mph 32.2 mph N/A   Mostly Cloudy
1:53 PM 55.9 °F 39.9 °F 55% 29.63 in 10.0 mi WSW 20.7 mph 34.5 mph N/A   Overcast
2:53 PM 57.0 °F 39.0 °F 51% 29.63 in 10.0 mi WSW 17.3 mph 32.2 mph N/A   Overcast
3:53 PM 57.9 °F 39.0 °F 49% 29.64 in 10.0 mi WSW 16.1 mph 33.4 mph N/A   Overcast
4:53 PM 57.0 °F 37.9 °F 49% 29.66 in 10.0 mi West 16.1 mph 23.0 mph N/A   Overcast
5:53 PM 57.0 °F 37.0 °F 47% 29.69 in 10.0 mi WSW 11.5 mph 25.3 mph N/A   Clear
6:53 PM 55.0 °F 37.9 °F 53% 29.71 in 10.0 mi WSW 9.2 mph - N/A   Scattered Clouds
7:53 PM 53.1 °F 39.9 °F 61% 29.73 in 10.0 mi WSW 9.2 mph - N/A   Mostly Cloudy
8:53 PM 54.0 °F 37.0 °F 53% 29.74 in 10.0 mi WSW 16.1 mph 28.8 mph N/A   Clear
9:53 PM 53.1 °F 37.0 °F 55% 29.78 in 10.0 mi West 12.7 mph 23.0 mph N/A   Overcast
10:53 PM 53.1 °F 37.0 °F 55% 29.81 in 10.0 mi West 13.8 mph 26.5 mph N/A   Overcast
11:53 PM 52.0 °F 37.9 °F 59% 29.83 in 10.0 mi West 12.7 mph 25.3 mph N/A   Overcast